This is the latest recevied weather packets stored in our database for station/object 4S6DRJ-13. If no packets are shown the sender has not sent any weather packets the latest 10 day(s).
| Time | Temp. | Humidity | Pressure | Rain* | Wind** | Luminosity | Snow |
|---|---|---|---|---|---|---|---|
| 1787779904 | 26.11° C | 94% | 1009.1 hPa | 0 mm | 0.89 m/s, 180° | 0 W/m² | - |
| 1787779842 | 26.11° C | 94% | 1009.1 hPa | 0 mm | 0.45 m/s, 195° | 0 W/m² | - |
| 1787779782 | 26.11° C | 94% | 1009.1 hPa | 0 mm | 0.45 m/s, 215° | 0 W/m² | - |
| 1787779721 | 25.56° C | 94% | 1009.3 hPa | 0 mm | 0.45 m/s, 189° | 0 W/m² | - |
| 1787779659 | 25.56° C | 94% | 1009.2 hPa | 0 mm | 0.89 m/s, 172° | 0 W/m² | - |
| 1787779598 | 25.56° C | 94% | 1009.2 hPa | 0 mm | 0.45 m/s, 237° | 0 W/m² | - |
| 1787779538 | 25.56° C | 94% | 1009.3 hPa | 0 mm | 0.89 m/s, 194° | 0 W/m² | - |
| 1787779476 | 25.56° C | 95% | 1009.3 hPa | 0 mm | 0.45 m/s, 195° | 0 W/m² | - |
| 1787779415 | 25.56° C | 95% | 1009.2 hPa | 0 mm | 0.89 m/s, 196° | 0 W/m² | - |
| 1787779354 | 25.56° C | 95% | 1009.2 hPa | 0 mm | 0 m/s | 0 W/m² | - |
| 1787779294 | 25.56° C | 95% | 1009.3 hPa | 0 mm | 0.45 m/s, 208° | 0 W/m² | - |
| 1787779233 | 25.56° C | 95% | 1009.2 hPa | 0 mm | 0.45 m/s, 208° | 0 W/m² | - |
| 1787779172 | 25.56° C | 95% | 1009.3 hPa | 0 mm | 0.45 m/s, 172° | 0 W/m² | - |
| 1787779111 | 25.56° C | 95% | 1009.3 hPa | 0 mm | 0 m/s | 0 W/m² | - |
| 1787779050 | 25.56° C | 95% | 1009.2 hPa | 0 mm | 0 m/s | 0 W/m² | - |
| 1787778989 | 25.56° C | 95% | 1009.2 hPa | 0 mm | 0.89 m/s, 216° | 0 W/m² | - |
| 1787778928 | 25.56° C | 95% | 1009.4 hPa | 0 mm | 0.89 m/s, 226° | 0 W/m² | - |
| 1787778867 | 25.56° C | 95% | 1009.3 hPa | 0 mm | 0 m/s | 0 W/m² | - |
| 1787778806 | 25.56° C | 95% | 1009.3 hPa | 0 mm | 0 m/s | 0 W/m² | - |
| 1787778745 | 25.56° C | 95% | 1009.3 hPa | 0 mm | 0.45 m/s, 223° | 0 W/m² | - |
| 1787778684 | 25.56° C | 95% | 1009.4 hPa | 0 mm | 0.45 m/s, 203° | 0 W/m² | - |
| 1787778623 | 25.56° C | 95% | 1009.5 hPa | 0 mm | 0.45 m/s, 220° | 0 W/m² | - |
| 1787778562 | 25.56° C | 95% | 1009.5 hPa | 0 mm | 0 m/s | 0 W/m² | - |
| 1787778502 | 25.56° C | 95% | 1009.3 hPa | 0 mm | 0 m/s | 0 W/m² | - |
| 1787778440 | 25.56° C | 95% | 1009.4 hPa | 0 mm | 0 m/s | 0 W/m² | - |
* Rain latest hour (hover to see other rain measurements)
** Current wind speed in m/s (hover to see current wind gust speed)